Location: Étang Rond
(42.7927°N, 1.0661°E)
Time: 00:30:13
(UTC+00:00)

Cosmos 2333 Rocket - Pass Details

Date: 08 November 2025
Orbit: 837 x 865 km, 70.8° (Epoch: 07 December)

Event Time Altitude Azimuth Distance (km) Brightness Sun altitude
Exits shadow 03:39:28 17° 6° (N) 2,047 4.3 -33.1°
Drops below altitude 10° 03:40:49 10° 13° (NNE) 2,500 4.8 -32.8°
Sets 03:43:26 0° 20° (NNE) 3,445 5.7 -32.4°
